Find Starlink 36599

NORAD ID: 67638 Int'l Des: 2026-020 Owner: SPXS Country: US Constellation: starlink operational
LEOCIRCULAR

当前视图

正在加载3D地球...

关于 Starlink 36599

正在加载描述...

即将过境

Passes for default location (London). Set your location on the main map for personalized predictions.

高度历史

Loading altitude history...

两行轨道根数

1 67638U 26020X 26146.13798079 .00035913 00000-0 13077-2 0 9994
2 67638 43.0041 62.7848 0001431 265.9524 94.1164 15.27594778 17953
Epoch: May 26, 2026 • Age: 17 hours

当前状态

高度 492.8 km
速度 7.62 km/s
星下点 -36.91°S, 106.81°E
发射日期 Jan 30, 2026
运行时间 0.3 years
类型 internet

技术详情

分类 Payload
质量 575.00 kg
干质量 530.00 kg
总质量 575.00 kg
长度 0.30 m
直径 4.10 m
跨度 29.00 m
形状 Box + pan
制造商 SPXS
平台类型 Starlink V2MO
阶段状态 In Orbit
所有者/国家 SPXS/US

Most Searched